Flag for U.S.A. Weather past 2 weeks in Yonkers, New York, U.S.A.

Now
54 °F

Fog.


Feels Like: 52 °F
Forecast: 53 / 64 °F
Wind: 7 mph from Northeast

Location: Teterboro Airport

Current Time: Apr 20, 2015 at 11:27:05 PM

Latest Report: Apr 20, 2015 at 10:51 PM


Visibility: 0 mi

Pressure: 29.59 "Hg

Humidity: 97%

Dew point: 53 °F

Location of YonkersLocation

Historic Weather in Yonkers — Graph

°F

Yonkers temperature yesterday

Maximum temperature yesterday: 61 °F (at 12:51 PM)
Minimum temperature yesterday: 48 °F (at 11:51 PM)
Average temperature yesterday: 55 °F

Past Weeks' High & Low Weather Summary

 TemperatureHumidityPressure
High80 °F (Apr 18, 4:51 PM)97% (Apr 20, 8:51 PM)30.48 "Hg (Apr 20, 8:51 PM)
Low35 °F (Apr 12, 5:51 AM)12% (Apr 15, 3:51 PM)29.61 "Hg (Apr 20, 8:51 PM)
Average54 °F57%30.14 "Hg
* Reported Apr 5 9:51 PM — Apr 20 9:51 PM, Yonkers, Weather by CustomWeather, © 2015

Note: Actual official high and low records may vary slightly from our data, if they occured in-between our weather recording intervals... More about our weather records

Advertising

Yonkers weather history for previous 24 hours

 ConditionsComfort  
Time TempWeatherWind HumidityBarometerVisibility
9:51 PM
Mon, Apr 20
55 °FFog.5 mph93%29.62 "Hg0 mi
8:51 PM54 °FFog.6 mph97%29.61 "Hg0 mi
7:51 PM55 °FFog.7 mph93%29.64 "Hg1 mi
6:51 PM55 °FFog.6 mph96%29.63 "Hg1 mi
5:51 PM56 °FLight rain. Low clouds.5 mph93%29.67 "Hg3 mi
4:51 PM57 °FLight rain. Low clouds.6 mph90%29.65 "Hg3 mi
3:58 PM57 °FLight rain. Low clouds.8 mph88%29.65 "Hg3 mi
2:58 PM57 °FLight rain. Low clouds.6 mph94%29.67 "Hg1 mi
1:51 PM55 °FRain. Mostly cloudy.3 mph93%29.69 "Hg1 mi
12:59 PM54 °FRain. Mostly cloudy.6 mph94%29.72 "Hg1 mi
12:03 PM54 °FRain. Cloudy.15 mph94%29.75 "Hg1 mi
11:51 AM51 °FRain. Low clouds.20 mph89%29.75 "Hg1 mi
10:51 AM50 °FRain. Low clouds.7 mph89%29.77 "Hg1 mi
9:51 AM48 °FRain. Low clouds.5 mph89%29.81 "Hg1 mi
8:51 AM47 °FRain. Low clouds.7 mph93%29.86 "Hg1 mi
7:57 AM46 °FRain. Overcast.8 mph87%29.88 "Hg2 mi
6:51 AM46 °FLight rain. Mostly cloudy.13 mph83%29.91 "Hg4 mi
5:51 AM45 °FLight rain. Overcast.15 mph86%29.93 "Hg10 mi
4:56 AM46 °FOvercast.14 mph76%29.98 "Hg10 mi
3:51 AM47 °FOvercast.9 mph80%30.02 "Hg10 mi
3:01 AM46 °FLight rain. Overcast.7 mph82%30.06 "Hg10 mi
2:03 AM46 °FLight rain. Mostly cloudy.12 mph76%30.09 "Hg10 mi
1:51 AM47 °FLight rain. Overcast.8 mph71%30.08 "Hg10 mi
12:51 AM47 °FClear.12 mph69%30.13 "Hg10 mi
11:51 PM
Sun, Apr 19
48 °FClear.12 mph63%30.16 "Hg10 mi
Weather by CustomWeather, © 2015

See weather overviewHow to use our weather pages